Location: Camden Lake
(44.4269°N, 76.8469°W)
Time: 11:59:48
(UTC-04:00)

Daily predictions for brighter satellites

Satellite Brightness Start Highest point End
(mag) Time Altitude Azimuth Time Altitude Azimuth Time Altitude Azimuth
Resurs 01 Rocket 2.5 21:25:03 10° S 21:29:21 51° W 21:33:42 10° NNW
Cosmos 1048 Rocket 4.1 21:24:29 10° SSW 21:29:48 87° ESE 21:35:13 10° NNE
Cosmos 921 Rocket 3.5 21:27:28 10° N 21:31:50 49° ENE 21:36:13 10° SE
ERS-2 2.8 21:28:31 10° S 21:32:07 55° WSW 21:35:45 10° NNW
USA 186 4.4 21:30:11 10° SW 21:32:30 19° W 21:34:42 10° NW
OAO 3 Rocket 4.4 21:28:50 10° WSW 21:33:01 27° S 21:37:10 10° SE
Cosmos 1825 Rocket 3.9 21:35:28 10° SSW 21:39:54 75° W 21:44:23 10° N
SL-8 R/B 3.8 21:36:15 10° SW 21:41:00 60° SSE 21:45:46 10° ENE
Cosmos 2278 Rocket 3.5 21:38:36 10° SSE 21:42:43 21° E 21:46:52 10° NE
ARGOS 3.2 21:37:35 10° SSE 21:42:59 77° ENE 21:48:26 10° N
Cosmos 1315 Rocket 3.1 21:40:45 10° SSW 21:44:48 73° W 21:48:56 10° N
MetOp-A 4.2 21:43:50 10° SSE 21:49:11 82° ENE 21:54:35 10° NNW
Spot 2 Rocket 4.4 21:45:20 10° S 21:50:12 48° W 21:55:07 10° NNW
APEX 4.1 21:49:33 10° N 21:52:18 29° ENE 21:55:17 11° ESE
COSMOS 2406 3.3 21:53:18 10° NNW 21:59:05 72° ENE 22:04:22 12° SSE
Cosmos 1844 Rocket 2.7 21:53:26 10° SSW 21:59:07 86° ESE 22:04:48 10° NNE
Cosmos 1844 3.7 21:59:47 10° SSW 22:05:27 75° ESE 22:11:14 10° NNE
SL-08 RB Rocket 3.8 22:01:36 10° SSE 22:06:15 83° WSW 22:10:57 10° NNW
ATLAS 3B R/B 2.7 22:00:26 10° NW 22:07:08 77° NE 22:12:52 14° SE
Cosmos 1110 Rocket 4.1 22:03:28 10° NNW 22:08:40 79° WSW 22:13:32 12° SSE
Cosmos 1238 Rocket 3.4 22:06:16 10° SSW 22:09:04 40° WNW 22:12:03 10° N
KORONAS-FOTON 3.9 22:05:51 10° S 22:09:42 65° E 22:13:36 10° NNE
SPOT 5 3.4 22:06:25 13° SE 22:10:49 54° ENE 22:15:59 10° N
USA 238 DEB 3.9 22:04:07 10° NW 22:11:16 81° SW 22:17:40 14° SSE
USA 238 3.9 22:04:13 10° NW 22:11:23 81° SW 22:17:45 14° SSE
SL-14 R/B 4.3 22:09:27 15° SE 22:11:54 29° E 22:15:19 10° NNE
Cosmos 1346 Rocket 3.7 22:10:41 10° NNW 22:14:34 47° W 22:18:27 10° S
ATLAS 5 CENTAUR R/B 3.0 22:14:23 16° SE 22:16:21 21° ESE 22:19:51 10° ENE
Cosmos-2242 3.8 22:12:04 10° NNW 22:16:21 51° W 22:20:36 10° S
Lacrosse 5 3.0 22:11:51 10° WSW 22:16:46 49° NNW 22:21:41 10° NE
Cosmos 1331 Rocket 4.2 22:15:53 10° NNW 22:21:04 70° WSW 22:25:39 13° S
S3M 4.1 22:16:28 10° S 22:22:46 72° E 22:29:10 10° NNE
NOSS 3-2 (A) 4.1 22:15:21 10° NW 22:22:54 83° NE 22:29:42 16° SE
SPOT 1/Viking Rocket 3.6 22:20:08 16° SSE 22:24:17 68° ENE 22:29:25 10° N
H-2A R/B 2.6 22:19:10 10° S 22:24:22 58° W 22:29:45 10° NNW
Cosmos 494 Rocket 4.2 22:19:14 10° SSW 22:24:29 78° WNW 22:29:47 10° NNE
Cosmos 2082 Rocket 3.4 22:23:37 10° N 22:28:42 31° NE 22:33:00 13° ESE
Cosmos 1833 Rocket 3.7 22:24:23 10° N 22:29:31 35° NE 22:33:38 15° ESE
Helios 1B rocket 3.0 22:27:29 10° NNE 22:31:22 40° E 22:33:41 21° SSE
Helios 1A 3.0 22:28:25 19° SSE 22:31:24 77° ENE 22:35:38 10° N
Cosmos 1626 3.4 22:31:41 20° ESE 22:32:57 25° E 22:36:02 10° NE
Cosmos 1908 4.3 22:30:52 10° NNW 22:34:32 42° W 22:38:07 10° SSW
Cosmos 1842 Rocket 3.5 22:31:39 10° N 22:36:02 87° WSW 22:39:11 19° S
CZ-2C R/B 3.8 22:32:53 10° NE 22:37:19 25° E 22:39:35 19° SE
ATLAS 2AS CENTAUR R/B 3.6 22:31:55 10° SW 22:39:45 64° NW 22:47:51 10° NE
Cosmos 1340 3.1 22:36:08 10° NNW 22:39:53 60° W 22:42:33 18° S
Cosmos 1553 Rocket 4.2 22:39:24 10° SSW 22:45:26 68° W 22:51:31 10° N
Landsat 7 3.8 22:42:27 21° SSE 22:45:42 88° ENE 22:50:29 10° NNW
Spot 1 4.3 22:46:00 24° SE 22:48:30 61° ENE 22:53:07 10° N
NOSS 3-2 (C) 4.1 22:41:12 10° NW 22:48:46 87° NE 22:54:47 21° SE
Cosmos 1302 Rocket 4.2 22:44:47 10° NNW 22:50:04 70° WSW 22:53:36 21° S
DMSP B5D2-2 4.3 22:45:25 10° N 22:50:39 71° WNW 22:55:50 10° SSW
ERS-1 Rocket 3.9 22:46:45 12° S 22:51:10 43° W 22:56:00 10° NNW
Cosmos 1455 3.7 22:54:56 10° NNE 22:57:59 23° ENE 22:59:05 20° E
Cosmos 1300 2.8 22:55:43 10° NNW 22:59:32 70° W 23:01:29 27° S
Cosmos 883 Rocket 4.4 22:55:17 18° S 23:00:04 77° E 23:06:20 10° N
Cosmos 2251 Rocket 3.8 22:58:20 10° SSW 23:03:39 70° WNW 23:08:59 10° NNE
Cosmos 1726 4.0 23:01:13 10° NNW 23:04:22 25° W 23:07:13 11° SW
Terra 1.8 23:02:30 27° SSE 23:05:08 89° E 23:09:56 10° NNW
Cosmos 2221 2.5 23:01:39 10° N 23:05:59 80° W 23:08:10 28° S
Cosmos 1992 Rocket 4.2 23:00:50 10° NNW 23:06:00 59° ENE 23:08:42 27° SE
Cosmos 2315 Rocket 4.1 23:02:11 22° S 23:06:21 66° E 23:12:40 10° NNE
RESURS DK-1 3.1 23:06:04 31° SE 23:06:39 32° ESE 23:10:22 10° NE
Okean 3 Rocket 3.7 23:06:52 32° SSE 23:08:41 56° E 23:12:59 10° NNE
H-2A R/B 4.3 23:09:34 21° S 23:13:22 27° SE 23:39:46 10° E
CENTAUR R/B 3.3 23:06:17 10° NW 23:14:10 70° NE 23:20:12 21° SE
NOSS 2-2 (E) 3.2 23:11:46 20° SSW 23:14:23 74° ESE 23:18:51 10° NE
Meteor 1-29 2.9 23:11:01 10° N 23:14:26 81° WNW 23:15:43 36° SSW
NOSS 3-4 (A) 3.4 23:10:41 10° SW 23:16:52 89° NW 23:23:22 10° NE
NOSS 3-4 (C) 3.4 23:10:46 10° SW 23:16:56 89° NW 23:23:27 10° NE
CZ-2C R/B 3.4 23:19:33 27° S 23:22:55 78° WSW 23:28:41 10° NNW
Cosmos 1328 3.7 23:21:27 36° S 23:23:00 89° W 23:26:58 10° N
Cosmos 1461 3.8 23:19:02 10° SW 23:23:38 59° NW 23:28:22 10° NNE
SL-8 R/B 4.3 23:18:51 10° W 23:23:38 59° N 23:28:25 10° ENE
Meteor 1-11 4.4 23:20:56 30° SSE 23:23:43 58° E 23:29:26 10° NNE
Cosmos 2278 Rocket 2.7 23:20:42 10° SW 23:26:17 61° WNW 23:31:57 10° NNE
ATLAS 3B CENTAUR R/B 4.2 23:22:49 10° SW 23:33:52 25° S 23:35:03 25° S
Spot 4 3.9 23:33:05 36° SE 23:35:00 68° ENE 23:39:51 10° N
Cosmos 407 Rocket 4.1 23:35:41 32° SE 23:36:46 36° ESE 23:41:28 10° NE
Cosmos 1441 Rocket 3.7 23:35:21 10° N 23:38:59 42° ENE 23:39:34 39° ESE
NOSS 2-2 (D) 3.6 23:42:34 19° SW 23:45:18 68° NW 23:49:47 10° NNE
Cosmos 1190 Rocket 4.3 23:49:20 39° SSE 23:50:41 49° ESE 23:55:43 10° NNE
Cosmos 405 Rocket 3.1 23:47:45 10° N 23:51:20 45° ENE 23:51:43 43° E
Cosmos 2369 Rocket 3.6 23:54:56 20° ESE 23:55:28 20° E 23:59:30 10° NE
